Location: Lourdes
(43.1000°N, 0.0500°W)
Time: 14:33:51
(UTC+00:00)

SL-24 R/B - Visible Passes

Search period start: 24 June 2021 00:00
Search period end: 04 July 2021 00:00
Orbit: 539 x 1204 km, 97.6° (Epoch: 24 June)

Date Brightness Start Highest point End Pass type
(mag) Time Alt. Az. Time Alt. Az. Time Alt. Az.
24 Jun ? 00:57:07 55° S 00:58:13 78° WSW 01:02:47 10° NNW visible
24 Jun ? 23:10:26 10° ENE 23:11:40 11° ENE 23:12:50 10° NE visible
25 Jun ? 00:51:32 57° S 00:52:35 86° WSW 00:57:05 10° NNW visible
26 Jun ? 00:45:56 57° SSE 00:46:56 85° ENE 00:51:22 10° N visible
27 Jun ? 00:40:21 56° SE 00:41:18 76° ENE 00:45:39 10° N visible
27 Jun ? 02:22:48 11° W 02:22:53 11° W 02:24:03 10° WNW visible
28 Jun ? 00:34:45 53° SE 00:35:39 67° ENE 00:39:55 10° N visible
28 Jun ? 02:17:12 12° W 02:17:12 12° W 02:18:57 10° WNW visible
29 Jun ? 00:29:08 49° ESE 00:30:00 59° ENE 00:34:11 10° N visible
29 Jun ? 02:11:36 13° W 02:11:36 13° W 02:13:40 10° WNW visible
30 Jun ? 00:23:32 45° ESE 00:24:21 52° ENE 00:28:25 10° N visible
30 Jun ? 02:06:00 14° W 02:06:00 14° W 02:08:17 10° WNW visible
01 Jul ? 00:17:56 41° ESE 00:18:42 45° ENE 00:22:39 10° N visible
01 Jul ? 02:00:23 16° W 02:00:23 16° W 02:02:51 10° NW visible
02 Jul ? 00:12:18 36° E 00:13:03 40° ENE 00:16:53 10° N visible
02 Jul ? 01:54:45 18° W 01:54:45 18° W 01:57:22 10° NW visible
03 Jul ? 00:06:41 32° E 00:07:24 35° ENE 00:11:06 10° N visible
03 Jul ? 01:49:08 19° W 01:49:08 19° W 01:51:51 10° NW visible
